Regional Weather Roundup
Issued by NWS

Home | Current Version | Previous Version | Graphics & Text | Print | Product List | Glossary On
Versions: 1 2 3 4 5 6 7 8 9 10 11 12 13 14 15 16 17 18 19 20 21 22 23 24 25 26 27 28 29 30 31 32 33 34 35 36 37 38 39 40 41 42 43 44 45 46 47 48 49 50
000
ASUS43 KDTX 291301
RWRMI
MICHIGAN HOURLY REGIONAL WEATHER ROUNDUP
NATIONAL WEATHER SERVICE DETROIT/PONTIAC MI
900 AM EDT FRI AUG 29 2014

NOTE: "FAIR" INDICATES FEW OR NO CLOUDS BELOW 12,000 FEET WITH NO
SIGNIFICANT WEATHER AND/OR OBSTRUCTION TO VISIBILITY.

MIZ047>049-052>055-059>063-066>070-074>076-081>083-291400-
SOUTHEAST LOWER MICHIGAN

CITY           SKY/WX    TMP DP  RH WIND       PRES   REMARKS
ADRIAN         MOSUNNY   62  52  69 SE7       30.15R
ALMA           CLOUDY    61  57  86 SE5       30.11S
ANN ARBOR      MOSUNNY   63  55  75 VRB5      30.14R
BAD AXE        PTSUNNY   60  55  86 SE6       30.15F
CARO           PTSUNNY   61  56  83 SE6       30.13F
DETROIT CITY   MOSUNNY   67  54  63 SE9       30.15S
DETROIT        PTSUNNY   66  56  70 SE5       30.14F
FLINT          PTSUNNY   68  57  68 SE13      30.13S
GROSSE ILE     PTSUNNY   68  55  64 SE14      30.13S
HILLSDALE      CLOUDY    62  54  74 SE7       30.13S
HOWELL         MOSUNNY   61  56  84 S8        30.13S

CITY           SKY/WX    TMP DP  RH WIND       PRES   REMARKS
JACKSON        PTSUNNY   64  50  60 SE9       30.12F
LAMBERTVILLE   MOSUNNY   61  52  72 SE3       30.15R
LANSING        PTSUNNY   63  52  67 SE9       30.12R
LAPEER         FAIR      60  54  82 SE3       30.15S
MASON          PTSUNNY   61  53  75 SE9       30.12S
MONROE         PTSUNNY   64  55  72 S8        30.13S
MT. CLEMENS    PTSUNNY   65  58  77 SE7       30.14R
PONTIAC        PTSUNNY   64  54  69 SE7       30.14S
PORT HOPE        N/A     63  55  75 S5        30.13F
PORT HURON     PTSUNNY   61  57  88 CALM      30.16S
TRI CITIES     CLOUDY    63  55  75 SE6       30.13S
TROY           PTSUNNY   64  56  75 CALM      30.16S
SAGINAW HB     PTSUNNY   61  57  88 SE6       30.11F
$$
MIZ043>046-050>051-056>058-064>065-071>073-077>080-291400-
SOUTHWEST LOWER MICHIGAN

CITY           SKY/WX    TMP DP  RH WIND       PRES   REMARKS
BATTLE CREEK   CLOUDY    64  51  62 SE10      30.10S
BENTON HARBOR  CLOUDY    65  60  84 SE10      30.04S
BIG RAPIDS     CLOUDY    62  57  84 SE10G17   30.07S
COLDWATER      CLOUDY    64  56  73 SE6       30.11S
FREMONT        RAIN      64  56  75 SE7       30.05R
HOLLAND        CLOUDY    67  58  72 SE12      30.05S
GRAND RAPIDS   CLOUDY    64  56  75 SE12      30.08S
IONIA          FAIR      63  53  69 SE13      30.09S
KALAMAZOO      CLOUDY    64  53  67 SE7       30.10R
LUDINGTON      CLOUDY    64  59  83 SE12      30.01S
MARSHALL       CLOUDY    62  50  64 SE7       30.11R
MOUNT PLEASANT CLOUDY    60  55  82 E6        30.10S
MUSKEGON       LGT RAIN  64  58  80 SE13      30.04R
SOUTH HAVEN    LGT RAIN  66  60  78 SE5       30.05R
$$
MIZ016>042-291400-
NORTHERN LOWER MICHIGAN

CITY           SKY/WX    TMP DP  RH WIND       PRES   REMARKS
ALPENA         PTSUNNY   60  54  80 SE7       30.12S
BEAVER ISLAND  RAIN      60  58  94 S5        30.05S
BELLAIRE       RAIN      59  57  91 S5        30.05F
CADILLAC       CLOUDY    59  56  89 SE8       30.06S
CHARLEVOIX     RAIN      59  58  97 SE8       30.08F
FRANKFORT      HVY RAIN  62  58  86 SE5       30.01S
GAYLORD        LGT RAIN  55  53  93 S9        30.10S
GRAYLING       DRIZZLE   56  56  98 SE7       30.10F
HARBOR SPRINGS RAIN      60  56  85 CALM      30.08S
HOUGHTON LAKE  LGT RAIN  57  55  93 SE8       30.10F
MANISTEE       CLOUDY    61  57  88 E8        30.01F
OSCODA         PTSUNNY   63  55  76 SE6       30.13S
PELLSTON       LGT RAIN  59  56  89 SE7       30.08S
ROGERS CITY    CLOUDY    59  55  88 S8        30.11F
TRAVERSE CITY  CLOUDY    60  57  89 VRB3      30.03F
$$
MIZ007>008-015-291400-
EASTERN UPPER MICHIGAN

CITY           SKY/WX    TMP DP  RH WIND       PRES   REMARKS
KINROSS        CLOUDY    57  57 100 SE7       30.08S
MACKINAC ISLAN LGT RAIN  57  55  92 S8        30.07S
NEWBERRY       CLOUDY    57  56  94 SE6       30.04S
S. S. MARIE    PTSUNNY   57  54  89 CALM      30.08S
$$
MIZ004>006-011>014-085-291400-
CENTRAL UPPER MICHIGAN

CITY           SKY/WX    TMP DP  RH WIND       PRES   REMARKS
MANISTIQUE     CLOUDY    62  59  91 SE9       30.02S
ESCANABA       CLOUDY    61  55  82 SE9       30.00S
MENOMINEE      CLOUDY    61  57  88 SE12      29.96F
SAWYER-GWINN   CLOUDY    59  57  94 S10       29.99F
$$
MIZ001>003-009>011-084-291400-
WESTERN UPPER MICHIGAN

CITY           SKY/WX    TMP DP  RH WIND       PRES   REMARKS
IRON MOUNTAIN  CLOUDY    59  57  93 SE6       29.97S FOG
HOUGHTON       CLOUDY    61  55  81 SE9       29.94S
COPPER HARBOR    N/A     62  56  80 SW10G20   29.93F
$$

ABBREVIATIONS USED IN REMARKS
   TC - TEMPERATURE IN CELSIUS
  WCI - WIND CHILL INDEX
   HX - HEAT INDEX
  VSB - VISIBILITY



USA.gov is the U.S. government's official web portal to all federal, state and local government web resources and services.